,,Stat6,,Stat2,,Stat8,,Stat9,,Stat10,,Wind1,,Wind1,
time,status,PA1M_AVG,status,PR1M_SUM,status,RH1M_AVG,status,SR1M_AVG,status,TA1M_AVG,status,W1dAve1m,status,W1sAve1m,
2005-04-09, 00:00:01,VALID,920.855,VALID,0,VALID,99.9641,VALID,-0.0509425,VALID,17.315,VALID,21,VALID,0.440589,
2005-04-09, 00:01:00,VALID,920.851,VALID,0,VALID,100,VALID,-0.0339617,VALID,17.3344,VALID,21,VALID,0.238372,
2005-04-09, 00:02:00,VALID,920.843,VALID,0,VALID,100,VALID,-0.0169808,VALID,17.3411,VALID,21,VALID,0,
2005-04-09, 00:03:00,VALID,920.844,VALID,0,VALID,99.9529,VALID,-0.0169808,VALID,17.312,VALID,21,VALID,0.00479403,
2005-04-09, 00:04:00,VALID,920.862,VALID,0,VALID,99.9565,VALID,0.0169808,VALID,17.3049,VALID,99,VALID,0.510603,
2005-04-09, 00:05:00,VALID,920.864,VALID,0,VALID,99.9939,VALID,0.0679233,VALID,17.3202,VALID,169,VALID,0.57984,
2005-04-09, 00:06:00,VALID,920.86,VALID,0,VALID,99.84,VALID,0.0339617,VALID,17.304,VALID,194,VALID,0.348028,
2005-04-09, 00:07:00,VALID,920.842,VALID,0,VALID,99.6455,VALID,0.0509425,VALID,17.2782,VALID,194,VALID,0.0768532,
2005-04-09, 00:08:00,VALID,920.828,VALID,0,VALID,99.5234,VALID,0.0339617,VALID,17.2812,VALID,194,VALID,0.0893895,
2005-04-09, 00:09:01,VALID,920.817,VALID,0,VALID,99.7103,VALID,0.0169808,VALID,17.3333,VALID,225,VALID,0.220796,
2005-04-09, 00:10:00,VALID,920.803,VALID,0,VALID,99.648,VALID,0.0339617,VALID,17.372,VALID,329,VALID,0.461128,
2005-04-09, 00:11:00,VALID,920.812,VALID,0,VALID,99.2424,VALID,-0.0679233,VALID,17.3862,VALID,330,VALID,0.484193,
2005-04-09, 00:12:00,VALID,920.794,VALID,0,VALID,98.6002,VALID,-0.0679233,VALID,17.4019,VALID,3,VALID,0.858008,
2005-04-09, 00:13:00,VALID,920.782,VALID,0,VALID,98.4133,VALID,-0.0679233,VALID,17.451,VALID,15,VALID,0.675876,
2005-04-09, 00:14:01,VALID,920.783,VALID,0,VALID,98.5392,VALID,-0.0679233,VALID,17.4441,VALID,21,VALID,0.396076,
2005-04-09, 00:15:01,VALID,920.788,VALID,0.2,VALID,98.8367,VALID,-0.0849042,VALID,17.454,VALID,21,VALID,0,
2005-04-09, 00:16:00,VALID,920.782,VALID,0,VALID,98.9041,VALID,-0.101885,VALID,17.4278,VALID,21,VALID,0,
2005-04-09, 00:17:00,VALID,920.79,VALID,0,VALID,98.8266,VALID,-0.0509425,VALID,17.4088,VALID,153,VALID,0.532269,
2005-04-09, 00:18:00,VALID,920.777,VALID,0,VALID,98.8049,VALID,-0.0849042,VALID,17.3733,VALID,183,VALID,0.146391,
2005-04-09, 00:19:00,VALID,920.755,VALID,0,VALID,98.8647,VALID,0,VALID,17.3731,VALID,183,VALID,0.0656622,
2005-04-09, 00:20:00,VALID,920.75,VALID,0,VALID,99.1648,VALID,0.0169808,VALID,17.3722,VALID,183,VALID,0.235709,
2005-04-09, 00:21:01,VALID,920.741,VALID,0,VALID,99.0453,VALID,0.0169808,VALID,17.3623,VALID,183,VALID,0.0260417,
2005-04-09, 00:22:00,VALID,920.761,VALID,0,VALID,98.9474,VALID,0.0339617,VALID,17.3557,VALID,183,VALID,0.283558,
2005-04-09, 00:23:00,VALID,920.741,VALID,0,VALID,99.0338,VALID,0.0679233,VALID,17.3716,VALID,182,VALID,0.0280107,
2005-04-09, 00:24:00,VALID,920.721,VALID,0,VALID,99.189,VALID,0.0339617,VALID,17.3753,VALID,63,VALID,0.529297,
2005-04-09, 00:25:01,VALID,920.721,VALID,0,VALID,99.4179,VALID,0.101885,VALID,17.3813,VALID,25,VALID,0.453852,
2005-04-09, 00:26:00,VALID,920.707,VALID,0,VALID,99.5666,VALID,0.0339617,VALID,17.3849,VALID,25,VALID,0.653706,
2005-04-09, 00:27:01,VALID,920.693,VALID,0,VALID,99.456,VALID,0,VALID,17.3656,VALID,25,VALID,0.9375,
2005-04-09, 00:28:00,VALID,920.688,VALID,0,VALID,99.1839,VALID,0.0679233,VALID,17.3303,VALID,25,VALID,1.12518,
2005-04-09, 00:29:00,VALID,920.665,VALID,0,VALID,99.0542,VALID,0.0679233,VALID,17.3206,VALID,25,VALID,1.17932,
2005-04-09, 00:30:01,VALID,920.642,VALID,0,VALID,98.8609,VALID,0.0169808,VALID,17.3008,VALID,25,VALID,0.865007,
2005-04-09, 00:31:00,VALID,920.642,VALID,0,VALID,98.8596,VALID,0.0339617,VALID,17.275,VALID,20,VALID,1.00254,
2005-04-09, 00:32:00,VALID,920.622,VALID,0,VALID,98.8698,VALID,0.0169808,VALID,17.2621,VALID,11,VALID,1.02325,
2005-04-09, 00:33:00,VALID,920.617,VALID,0,VALID,98.763,VALID,0,VALID,17.2587,VALID,31,VALID,0.836115,
2005-04-09, 00:34:00,VALID,920.604,VALID,0.2,VALID,98.7236,VALID,0.0169808,VALID,17.2593,VALID,20,VALID,0.405895,
2005-04-09, 00:35:00,VALID,920.579,VALID,0,VALID,98.8812,VALID,0.0169808,VALID,17.263,VALID,21,VALID,0.313772,
2005-04-09, 00:36:00,VALID,920.555,VALID,0,VALID,99.0275,VALID,0,VALID,17.2266,VALID,23,VALID,0.387607,
2005-04-09, 00:37:00,VALID,920.541,VALID,0,VALID,99.2691,VALID,0,VALID,17.2234,VALID,23,VALID,0.126488,
2005-04-09, 00:38:01,VALID,920.517,VALID,0,VALID,99.3873,VALID,0.0169808,VALID,17.2242,VALID,23,VALID,0.238086,
2005-04-09, 00:39:00,VALID,920.499,VALID,0,VALID,99.5069,VALID,0,VALID,17.1982,VALID,43,VALID,0.614955,
2005-04-09, 00:40:01,VALID,920.483,VALID,0,VALID,99.6277,VALID,0.0339617,VALID,17.1847,VALID,48,VALID,0.781994,
2005-04-09, 00:41:01,VALID,920.461,VALID,0,VALID,99.6862,VALID,0.0169808,VALID,17.1685,VALID,48,VALID,0.804501,
2005-04-09, 00:42:01,VALID,920.432,VALID,0,VALID,99.7396,VALID,0.0169808,VALID,17.1623,VALID,48,VALID,0.89234,
2005-04-09, 00:43:00,VALID,920.393,VALID,0,VALID,99.7014,VALID,0.0339617,VALID,17.1588,VALID,47,VALID,0.822599,
2005-04-09, 00:44:00,VALID,920.366,VALID,0,VALID,99.7256,VALID,0.0509425,VALID,17.1687,VALID,45,VALID,0.842297,
2005-04-09, 00:45:01,VALID,920.341,VALID,0,VALID,99.545,VALID,0.0169808,VALID,17.1655,VALID,44,VALID,0.802431,
2005-04-09, 00:46:01,VALID,920.311,VALID,0,VALID,99.339,VALID,0.0339617,VALID,17.1623,VALID,44,VALID,0.777431,
2005-04-09, 00:47:00,VALID,920.304,VALID,0,VALID,99.1623,VALID,0.0509425,VALID,17.1717,VALID,40,VALID,0.747142,
2005-04-09, 00:48:00,VALID,920.304,VALID,0,VALID,98.6752,VALID,0.0509425,VALID,17.1717,VALID,34,VALID,0.610491,
2005-04-09, 00:49:00,VALID,920.289,VALID,0,VALID,98.3929,VALID,0.0169808,VALID,17.2014,VALID,33,VALID,0.667597,
2005-04-09, 00:50:00,VALID,920.266,VALID,0,VALID,98.1335,VALID,-0.0509425,VALID,17.2318,VALID,32,VALID,0.817014,
2005-04-09, 00:51:00,VALID,920.25,VALID,0,VALID,97.9809,VALID,-0.0509425,VALID,17.2477,VALID,29,VALID,0.805432,
2005-04-09, 00:52:00,VALID,920.24,VALID,0,VALID,97.6046,VALID,-0.0849042,VALID,17.2505,VALID,25,VALID,0.537016,
2005-04-09, 00:53:00,VALID,920.226,VALID,0,VALID,97.3515,VALID,-0.0679233,VALID,17.2673,VALID,25,VALID,0.243712,
2005-04-09, 00:54:00,VALID,920.201,VALID,0,VALID,96.9357,VALID,-0.0339617,VALID,17.2636,VALID,25,VALID,0.252725,
2005-04-09, 00:55:00,VALID,920.156,VALID,0.2,VALID,96.4906,VALID,-0.0509425,VALID,17.2569,VALID,35,VALID,0.329055,
2005-04-09, 00:56:01,VALID,920.128,VALID,0,VALID,96.2808,VALID,-0.0169808,VALID,17.2606,VALID,50,VALID,0.389898,
2005-04-09, 00:57:01,VALID,920.107,VALID,0,VALID,96.0278,VALID,-0.0339617,VALID,17.2864,VALID,66,VALID,0.637908,
2005-04-09, 00:58:00,VALID,920.102,VALID,0,VALID,96.4741,VALID,-0.0169808,VALID,17.3023,VALID,98,VALID,0.521875,
2005-04-09, 00:59:00,VALID,920.079,VALID,0,VALID,96.839,VALID,-0.0169808,VALID,17.3353,VALID,95,VALID,0.545785,
2005-04-09, 01:00:01,VALID,920.056,VALID,0,VALID,97.3464,VALID,-0.0509425,VALID,17.3155,VALID,91,VALID,0.647675,
2005-04-09, 01:01:00,VALID,920.057,VALID,0,VALID,97.6885,VALID,-0.0339617,VALID,17.2963,VALID,124,VALID,0.593387,
2005-04-09, 01:02:00,VALID,920.057,VALID,0,VALID,98.2569,VALID,-0.0679233,VALID,17.2666,VALID,152,VALID,0.702592,
2005-04-09, 01:03:01,VALID,920.043,VALID,0,VALID,98.6956,VALID,-0.0339617,VALID,17.2542,VALID,157,VALID,0.85766,
2005-04-09, 01:04:00,VALID,920.041,VALID,0,VALID,98.9079,VALID,-0.0339617,VALID,17.247,VALID,157,VALID,0.450863,
2005-04-09, 01:05:00,VALID,920.039,VALID,0,VALID,99.119,VALID,0.0169808,VALID,17.2363,VALID,157,VALID,0.165365,
2005-04-09, 01:06:00,VALID,920.033,VALID,0,VALID,98.7681,VALID,0.0339617,VALID,17.2434,VALID,157,VALID,0.27255,
2005-04-09, 01:07:00,VALID,920.007,VALID,0,VALID,97.6478,VALID,0,VALID,17.2335,VALID,157,VALID,0.110069,
2005-04-09, 01:08:00,VALID,919.984,VALID,0,VALID,97.3833,VALID,0.0509425,VALID,17.2849,VALID,157,VALID,0,
2005-04-09, 01:09:00,VALID,919.959,VALID,0,VALID,97.8195,VALID,0.0339617,VALID,17.3505,VALID,157,VALID,0.0806686,
2005-04-09, 01:10:01,VALID,919.962,VALID,0,VALID,97.4036,VALID,0,VALID,17.3497,VALID,157,VALID,0.165838,
2005-04-09, 01:11:00,VALID,919.949,VALID,0,VALID,96.3533,VALID,0.0339617,VALID,17.366,VALID,157,VALID,0.214753,
2005-04-09, 01:12:00,VALID,919.948,VALID,0,VALID,95.9782,VALID,0.0169808,VALID,17.4308,VALID,157,VALID,0.0481771,
2005-04-09, 01:13:01,VALID,919.948,VALID,0,VALID,96.9675,VALID,0.0169808,VALID,17.4624,VALID,157,VALID,0,
2005-04-09, 01:14:00,VALID,919.925,VALID,0,VALID,96.5873,VALID,0.0339617,VALID,17.4596,VALID,157,VALID,0.00159801,
2005-04-09, 01:15:01,VALID,919.926,VALID,0,VALID,95.8447,VALID,0.0169808,VALID,17.443,VALID,140,VALID,0.229167,
2005-04-09, 01:16:01,VALID,919.926,VALID,0,VALID,95.9451,VALID,0.0509425,VALID,17.4693,VALID,124,VALID,0.10992,
2005-04-09, 01:17:01,VALID,919.913,VALID,0,VALID,95.6183,VALID,0.0169808,VALID,17.4594,VALID,124,VALID,0.062872,
2005-04-09, 01:18:00,VALID,919.906,VALID,0,VALID,96.2732,VALID,0,VALID,17.4534,VALID,124,VALID,0.147693,
2005-04-09, 01:19:01,VALID,919.89,VALID,0,VALID,95.8752,VALID,0,VALID,17.392,VALID,124,VALID,0.0170785,
2005-04-09, 01:20:01,VALID,919.881,VALID,0,VALID,95.9337,VALID,-0.0849042,VALID,17.4093,VALID,124,VALID,0.0636161,
2005-04-09, 01:21:01,VALID,919.877,VALID,0,VALID,96.7157,VALID,-0.0679233,VALID,17.4317,VALID,124,VALID,0.0446429,
2005-04-09, 01:22:01,VALID,919.848,VALID,0,VALID,95.9883,VALID,-0.0679233,VALID,17.3957,VALID,124,VALID,0.130766,
2005-04-09, 01:23:00,VALID,919.821,VALID,0,VALID,96.764,VALID,-0.0509425,VALID,17.4317,VALID,120,VALID,0.348474,
2005-04-09, 01:24:01,VALID,919.817,VALID,0,VALID,96.5517,VALID,-0.0509425,VALID,17.4286,VALID,31,VALID,0.660156,
2005-04-09, 01:25:01,VALID,919.82,VALID,0,VALID,96.6203,VALID,-0.0849042,VALID,17.419,VALID,19,VALID,0.910342,
2005-04-09, 01:26:01,VALID,919.823,VALID,0,VALID,95.4822,VALID,-0.0849042,VALID,17.4061,VALID,16,VALID,0.772222,
2005-04-09, 01:27:01,VALID,919.828,VALID,0,VALID,96.1104,VALID,-0.0169808,VALID,17.445,VALID,16,VALID,0.48266,
2005-04-09, 01:28:01,VALID,919.819,VALID,0,VALID,96.6521,VALID,-0.0679233,VALID,17.4581,VALID,16,VALID,0.65904,
2005-04-09, 01:29:01,VALID,919.809,VALID,0,VALID,96.792,VALID,-0.0679233,VALID,17.4254,VALID,16,VALID,0.880451,
2005-04-09, 01:30:01,VALID,919.808,VALID,0,VALID,97.0489,VALID,-0.0849042,VALID,17.3904,VALID,19,VALID,1.05983,
2005-04-09, 01:31:01,VALID,919.81,VALID,0,VALID,97.0972,VALID,-0.101885,VALID,17.3581,VALID,25,VALID,0.945503,
2005-04-09, 01:32:01,VALID,919.809,VALID,0,VALID,97.1074,VALID,-0.0679233,VALID,17.3159,VALID,20,VALID,0.624321,
2005-04-09, 01:33:01,VALID,919.813,VALID,0,VALID,96.9471,VALID,-0.0679233,VALID,17.274,VALID,21,VALID,0.205357,
2005-04-09, 01:34:01,VALID,919.805,VALID,0,VALID,97.1061,VALID,-0.0339617,VALID,17.2419,VALID,21,VALID,0,
2005-04-09, 01:35:01,VALID,919.8,VALID,0,VALID,97.4303,VALID,-0.0339617,VALID,17.2184,VALID,21,VALID,0.149306,
2005-04-09, 01:36:01,VALID,919.778,VALID,0,VALID,97.7419,VALID,-0.0169808,VALID,17.1862,VALID,129,VALID,0.361737,
2005-04-09, 01:37:01,VALID,919.77,VALID,0,VALID,97.9021,VALID,-0.0509425,VALID,17.1604,VALID,133,VALID,0.289474,
2005-04-09, 01:38:01,VALID,919.755,VALID,0,VALID,98.0293,VALID,-0.0339617,VALID,17.1543,VALID,133,VALID,0,
2005-04-09, 01:39:01,VALID,919.756,VALID,0,VALID,98.1297,VALID,-0.0509425,VALID,17.1378,VALID,133,VALID,0,
2005-04-09, 01:40:01,VALID,919.75,VALID,0,VALID,98.2836,VALID,-0.0339617,VALID,17.1446,VALID,133,VALID,0,
2005-04-09, 01:41:01,VALID,919.742,VALID,0,VALID,98.159,VALID,-0.0509425,VALID,17.1281,VALID,133,VALID,0,
2005-04-09, 01:42:01,VALID,919.727,VALID,0,VALID,98.0356,VALID,-0.0339617,VALID,17.1221,VALID,122,VALID,0.289453,
2005-04-09, 01:43:01,VALID,919.701,VALID,0,VALID,97.953,VALID,-0.0169808,VALID,17.1517,VALID,76,VALID,0.571039,
2005-04-09, 01:44:01,VALID,919.697,VALID,0,VALID,98.2035,VALID,-0.0509425,VALID,17.1829,VALID,53,VALID,0.594815,
2005-04-09, 01:45:01,VALID,919.679,VALID,0,VALID,98.3866,VALID,-0.0339617,VALID,17.2129,VALID,51,VALID,0.872656,
2005-04-09, 01:46:01,VALID,919.667,VALID,0,VALID,98.6206,VALID,-0.0169808,VALID,17.1801,VALID,43,VALID,0.823785,
2005-04-09, 01:47:01,VALID,919.681,VALID,0.2,VALID,98.8863,VALID,-0.0169808,VALID,17.1743,VALID,33,VALID,0.389027,
2005-04-09, 01:48:01,VALID,919.673,VALID,0,VALID,98.9486,VALID,-0.0339617,VALID,17.1414,VALID,32,VALID,0.386446,
2005-04-09, 01:49:01,VALID,919.646,VALID,0,VALID,98.7337,VALID,-0.0509425,VALID,17.1126,VALID,33,VALID,0.530523,
2005-04-09, 01:50:01,VALID,919.616,VALID,0,VALID,98.2938,VALID,-0.0679233,VALID,17.1253,VALID,34,VALID,0.736374,
2005-04-09, 01:51:01,VALID,919.593,VALID,0,VALID,97.864,VALID,-0.0849042,VALID,17.1384,VALID,38,VALID,0.734003,
2005-04-09, 01:52:01,VALID,919.584,VALID,0,VALID,96.9204,VALID,-0.0339617,VALID,17.158,VALID,46,VALID,0.57977,
2005-04-09, 01:53:01,VALID,919.553,VALID,0,VALID,96.8416,VALID,-0.101885,VALID,17.19,VALID,46,VALID,0.571265,
2005-04-09, 01:54:00,VALID,919.521,VALID,0,VALID,97.2994,VALID,-0.101885,VALID,17.2286,VALID,52,VALID,0.87793,
2005-04-09, 01:55:00,VALID,919.499,VALID,0,VALID,96.8848,VALID,-0.0679233,VALID,17.2324,VALID,59,VALID,0.941106,
2005-04-09, 01:56:00,VALID,919.499,VALID,0,VALID,96.6712,VALID,-0.0679233,VALID,17.2027,VALID,60,VALID,0.858789,
2005-04-09, 01:57:00,VALID,919.503,VALID,0,VALID,96.5911,VALID,-0.0509425,VALID,17.2156,VALID,55,VALID,0.398438,
2005-04-09, 01:58:00,VALID,919.497,VALID,0,VALID,96.867,VALID,-0.0339617,VALID,17.2189,VALID,55,VALID,0,
2005-04-09, 01:59:00,VALID,919.476,VALID,0,VALID,97.1442,VALID,-0.0169808,VALID,17.2154,VALID,57,VALID,0.106517,
2005-04-09, 02:00:00,VALID,919.491,VALID,0,VALID,97.452,VALID,-0.0339617,VALID,17.2286,VALID,104,VALID,0.392113,
2005-04-09, 02:01:00,VALID,919.476,VALID,0,VALID,96.7767,VALID,-0.0509425,VALID,17.2094,VALID,124,VALID,0.119606,
2005-04-09, 02:02:00,VALID,919.461,VALID,0,VALID,96.5835,VALID,-0.0849042,VALID,17.2124,VALID,115,VALID,0.14043,
2005-04-09, 02:03:00,VALID,919.463,VALID,0,VALID,97.2409,VALID,-0.0339617,VALID,17.2511,VALID,43,VALID,0.71782,
2005-04-09, 02:04:00,VALID,919.45,VALID,0,VALID,97.0552,VALID,0,VALID,17.2572,VALID,31,VALID,0.639844,
2005-04-09, 02:05:00,VALID,919.445,VALID,0,VALID,97.1569,VALID,0.0339617,VALID,17.2658,VALID,31,VALID,0.229106,
2005-04-09, 02:06:00,VALID,919.432,VALID,0,VALID,97.6465,VALID,0.0679233,VALID,17.2787,VALID,31,VALID,0.11814,
2005-04-09, 02:07:00,VALID,919.417,VALID,0,VALID,97.766,VALID,0.0679233,VALID,17.2757,VALID,31,VALID,0.429492,
2005-04-09, 02:08:00,VALID,919.419,VALID,0,VALID,97.864,VALID,0.0509425,VALID,17.2531,VALID,18,VALID,0.5496,
2005-04-09, 02:09:00,VALID,919.412,VALID,0,VALID,97.6427,VALID,0.0339617,VALID,17.2176,VALID,16,VALID,0.341751,
2005-04-09, 02:10:00,VALID,919.386,VALID,0,VALID,97.2752,VALID,0.0679233,VALID,17.1918,VALID,16,VALID,0.382813,
2005-04-09, 02:11:00,VALID,919.354,VALID,0,VALID,97.7406,VALID,0.0679233,VALID,17.2339,VALID,16,VALID,0.0966082,
2005-04-09, 02:12:00,VALID,919.335,VALID,0,VALID,97.7775,VALID,0.0509425,VALID,17.23,VALID,16,VALID,0.0758168,
2005-04-09, 02:13:00,VALID,919.335,VALID,0,VALID,97.6084,VALID,0.0849042,VALID,17.2275,VALID,16,VALID,0.439596,
2005-04-09, 02:14:00,VALID,919.323,VALID,0,VALID,97.7953,VALID,0.0509425,VALID,17.2273,VALID,18,VALID,0.46875,
2005-04-09, 02:15:00,VALID,919.287,VALID,0,VALID,97.9034,VALID,0.0509425,VALID,17.2275,VALID,12,VALID,0.78234,
2005-04-09, 02:16:00,VALID,919.283,VALID,0,VALID,97.204,VALID,0.0339617,VALID,17.1918,VALID,9,VALID,0.717416,
2005-04-09, 02:17:00,VALID,919.274,VALID,0,VALID,97.3909,VALID,0.0679233,VALID,17.2017,VALID,9,VALID,0.217862,
2005-04-09, 02:18:00,VALID,919.266,VALID,0,VALID,97.588,VALID,0.0679233,VALID,17.1922,VALID,13,VALID,0.40625,
2005-04-09, 02:19:00,VALID,919.286,VALID,0,VALID,97.7826,VALID,0.101885,VALID,17.1791,VALID,356,VALID,0.70149,
2005-04-09, 02:20:00,VALID,919.271,VALID,0,VALID,97.8538,VALID,0.101885,VALID,17.1724,VALID,9,VALID,1.08866,
2005-04-09, 02:21:00,VALID,919.249,VALID,0,VALID,97.9759,VALID,0.0849042,VALID,17.1595,VALID,14,VALID,1.32286,
2005-04-09, 02:22:00,VALID,919.25,VALID,0,VALID,98.0649,VALID,0.101885,VALID,17.1431,VALID,13,VALID,1.21112,
2005-04-09, 02:23:00,VALID,919.279,VALID,0,VALID,98.2238,VALID,0.0679233,VALID,17.1206,VALID,290,VALID,1.0456,
2005-04-09, 02:24:00,VALID,919.27,VALID,0,VALID,98.2467,VALID,0.0679233,VALID,17.0526,VALID,249,VALID,0.773065,
2005-04-09, 02:25:00,VALID,919.25,VALID,0,VALID,98.6511,VALID,0.0849042,VALID,17.0111,VALID,250,VALID,0.237043,
2005-04-09, 02:26:00,VALID,919.246,VALID,0,VALID,98.899,VALID,0.0679233,VALID,17.0113,VALID,314,VALID,0.510356,
2005-04-09, 02:27:00,VALID,919.265,VALID,0,VALID,99.2602,VALID,0.0509425,VALID,17.0304,VALID,328,VALID,0.551897,
2005-04-09, 02:28:00,VALID,919.26,VALID,0,VALID,99.3899,VALID,0.0339617,VALID,17.0242,VALID,261,VALID,0.252467,
2005-04-09, 02:29:00,VALID,919.247,VALID,0,VALID,99.4598,VALID,0.0679233,VALID,17.0108,VALID,261,VALID,0.0441406,
2005-04-09, 02:30:00,VALID,919.242,VALID,0,VALID,99.5285,VALID,0.0339617,VALID,17.0018,VALID,261,VALID,0,
2005-04-09, 02:31:00,VALID,919.259,VALID,0,VALID,99.6468,VALID,0.0339617,VALID,16.9889,VALID,261,VALID,0,
2005-04-09, 02:32:00,VALID,919.268,VALID,0,VALID,99.8006,VALID,0.0849042,VALID,17.0014,VALID,261,VALID,0,
2005-04-09, 02:33:00,VALID,919.281,VALID,0,VALID,99.8629,VALID,0.0339617,VALID,17.0083,VALID,261,VALID,0.155717,
2005-04-09, 02:34:00,VALID,919.278,VALID,0,VALID,99.8604,VALID,0,VALID,17.0154,VALID,272,VALID,0.159961,
2005-04-09, 02:35:00,VALID,919.258,VALID,0,VALID,99.8019,VALID,-0.0679233,VALID,16.9962,VALID,340,VALID,0.485863,
2005-04-09, 02:36:00,VALID,919.231,VALID,0,VALID,99.7714,VALID,-0.0679233,VALID,17.0379,VALID,8,VALID,1.29055,
2005-04-09, 02:37:00,VALID,919.208,VALID,0,VALID,99.1508,VALID,-0.0509425,VALID,17.0769,VALID,16,VALID,0.97202,
2005-04-09, 02:38:00,VALID,919.211,VALID,0,VALID,98.8749,VALID,-0.0679233,VALID,17.1251,VALID,28,VALID,0.467634,
2005-04-09, 02:39:00,VALID,919.214,VALID,0,VALID,98.8215,VALID,-0.0509425,VALID,17.1479,VALID,326,VALID,0.356517,
2005-04-09, 02:40:00,VALID,919.218,VALID,0,VALID,98.721,VALID,-0.0679233,VALID,17.1548,VALID,293,VALID,0.357465,
2005-04-09, 02:41:00,VALID,919.209,VALID,0,VALID,98.7363,VALID,-0.0339617,VALID,17.1386,VALID,241,VALID,0.609375,
2005-04-09, 02:42:00,VALID,919.207,VALID,0,VALID,98.9512,VALID,-0.0509425,VALID,17.1089,VALID,246,VALID,0.57279,
2005-04-09, 02:43:00,VALID,919.196,VALID,0,VALID,99.086,VALID,-0.0679233,VALID,17.0965,VALID,267,VALID,0.199574,
2005-04-09, 02:44:00,VALID,919.182,VALID,0,VALID,99.133,VALID,-0.0509425,VALID,17.0833,VALID,356,VALID,0.57298,
2005-04-09, 02:45:00,VALID,919.188,VALID,0,VALID,98.9957,VALID,0,VALID,17.0997,VALID,15,VALID,0.69931,
2005-04-09, 02:46:00,VALID,919.197,VALID,0,VALID,98.9385,VALID,-0.0509425,VALID,17.1061,VALID,12,VALID,0.851749,
2005-04-09, 02:47:00,VALID,919.213,VALID,0,VALID,98.6651,VALID,-0.0169808,VALID,17.1223,VALID,12,VALID,0.598189,
2005-04-09, 02:48:00,VALID,919.231,VALID,0,VALID,98.5455,VALID,-0.0679233,VALID,17.1446,VALID,360,VALID,0.379179,
2005-04-09, 02:49:00,VALID,919.224,VALID,0,VALID,97.9186,VALID,-0.0339617,VALID,17.1642,VALID,341,VALID,0.673473,
2005-04-09, 02:50:00,VALID,919.201,VALID,0,VALID,97.6872,VALID,-0.0679233,VALID,17.1963,VALID,343,VALID,0.486607,
2005-04-09, 02:51:00,VALID,919.207,VALID,0,VALID,97.541,VALID,-0.0339617,VALID,17.2443,VALID,344,VALID,0.430069,
2005-04-09, 02:52:00,VALID,919.185,VALID,0,VALID,96.5746,VALID,-0.0169808,VALID,17.2412,VALID,350,VALID,0.683499,
2005-04-09, 02:53:00,VALID,919.176,VALID,0,VALID,96.1536,VALID,-0.0169808,VALID,17.3092,VALID,358,VALID,1.0372,
2005-04-09, 02:54:00,VALID,919.17,VALID,0,VALID,95.6603,VALID,-0.0169808,VALID,17.3546,VALID,359,VALID,0.813262,
2005-04-09, 02:55:00,VALID,919.17,VALID,0,VALID,95.7569,VALID,-0.0339617,VALID,17.3733,VALID,351,VALID,0.53995,
2005-04-09, 02:56:00,VALID,919.159,VALID,0,VALID,96.1231,VALID,-0.0169808,VALID,17.3962,VALID,351,VALID,0.0530134,
2005-04-09, 02:57:00,VALID,919.145,VALID,0,VALID,96.1804,VALID,-0.0169808,VALID,17.3643,VALID,353,VALID,0.325149,
2005-04-09, 02:58:00,VALID,919.112,VALID,0,VALID,96.4792,VALID,0,VALID,17.3581,VALID,353,VALID,0.178085,
2005-04-09, 02:59:00,VALID,919.102,VALID,0,VALID,96.6241,VALID,-0.0339617,VALID,17.329,VALID,9,VALID,0.456936,
2005-04-09, 03:00:00,VALID,919.098,VALID,0,VALID,96.7793,VALID,-0.0509425,VALID,17.2961,VALID,15,VALID,0.30625,
2005-04-09, 03:01:00,VALID,919.091,VALID,0,VALID,96.9916,VALID,-0.0509425,VALID,17.2802,VALID,15,VALID,0.0269886,
2005-04-09, 03:02:00,VALID,919.107,VALID,0,VALID,97.2867,VALID,-0.0679233,VALID,17.2742,VALID,15,VALID,0.0888445,
2005-04-09, 03:03:00,VALID,919.1,VALID,0,VALID,97.527,VALID,-0.0169808,VALID,17.2675,VALID,32,VALID,0.404948,
2005-04-09, 03:04:00,VALID,919.078,VALID,0,VALID,97.5575,VALID,0,VALID,17.2311,VALID,65,VALID,0.261905,
2005-04-09, 03:05:00,VALID,919.058,VALID,0,VALID,97.644,VALID,0.0679233,VALID,17.2042,VALID,65,VALID,0.252232,
2005-04-09, 03:06:00,VALID,919.04,VALID,0,VALID,97.7076,VALID,0.101885,VALID,17.198,VALID,67,VALID,0.646443,
2005-04-09, 03:07:00,VALID,919.038,VALID,0,VALID,97.4443,VALID,0.0849042,VALID,17.189,VALID,74,VALID,0.556323,
2005-04-09, 03:08:00,VALID,919.021,VALID,0,VALID,97.5893,VALID,0.0339617,VALID,17.1821,VALID,74,VALID,0.37936,
2005-04-09, 03:09:00,VALID,919.015,VALID,0,VALID,97.9898,VALID,0.0679233,VALID,17.2021,VALID,74,VALID,0.0664971,
2005-04-09, 03:10:00,VALID,919.008,VALID,0,VALID,98.2747,VALID,0.0849042,VALID,17.1851,VALID,74,VALID,0.118521,
2005-04-09, 03:11:00,VALID,918.986,VALID,0,VALID,98.4057,VALID,0.0679233,VALID,17.1659,VALID,74,VALID,0.40263,
2005-04-09, 03:12:00,VALID,918.984,VALID,0,VALID,98.6956,VALID,0.0679233,VALID,17.1401,VALID,74,VALID,0.532924,
2005-04-09, 03:13:00,VALID,918.977,VALID,0,VALID,99.0148,VALID,0.0509425,VALID,17.1171,VALID,74,VALID,0.367365,
2005-04-09, 03:14:00,VALID,918.968,VALID,0,VALID,99.2157,VALID,0.0849042,VALID,17.1343,VALID,74,VALID,0.392188,
2005-04-09, 03:15:00,VALID,918.975,VALID,0,VALID,99.4166,VALID,0.0849042,VALID,17.1173,VALID,74,VALID,0.413194,
2005-04-09, 03:16:00,VALID,918.958,VALID,0,VALID,99.5743,VALID,0.0849042,VALID,17.1079,VALID,60,VALID,0.618862,
2005-04-09, 03:17:00,VALID,918.944,VALID,0,VALID,99.6913,VALID,0.0849042,VALID,17.098,VALID,52,VALID,0.65997,
2005-04-09, 03:18:00,VALID,918.936,VALID,0,VALID,99.7587,VALID,0.101885,VALID,17.0885,VALID,24,VALID,0.924414,
2005-04-09, 03:19:00,VALID,918.919,VALID,0,VALID,99.6798,VALID,0.0679233,VALID,17.0592,VALID,17,VALID,1.25279,
2005-04-09, 03:20:00,VALID,918.902,VALID,0,VALID,99.1457,VALID,0.0849042,VALID,17.0534,VALID,14,VALID,1.3776,
2005-04-09, 03:21:00,VALID,918.886,VALID,0,VALID,98.2671,VALID,0.0849042,VALID,17.1113,VALID,17,VALID,1.24574,
2005-04-09, 03:22:00,VALID,918.871,VALID,0,VALID,97.5397,VALID,0.0169808,VALID,17.1593,VALID,16,VALID,0.740091,
2005-04-09, 03:23:00,VALID,918.862,VALID,0,VALID,97.1875,VALID,0.0679233,VALID,17.2236,VALID,12,VALID,0.406059,
2005-04-09, 03:24:00,VALID,918.87,VALID,0,VALID,96.5428,VALID,0.0679233,VALID,17.2696,VALID,360,VALID,0.327009,
2005-04-09, 03:25:00,VALID,918.849,VALID,0,VALID,95.8332,VALID,0.0849042,VALID,17.3245,VALID,4,VALID,0.589472,
2005-04-09, 03:26:00,VALID,918.827,VALID,0,VALID,95.5051,VALID,0.0509425,VALID,17.3662,VALID,15,VALID,0.650905,
2005-04-09, 03:27:00,VALID,918.811,VALID,0,VALID,95.5484,VALID,0.0509425,VALID,17.4374,VALID,14,VALID,1.06498,
2005-04-09, 03:28:00,VALID,918.773,VALID,0,VALID,94.657,VALID,0.0679233,VALID,17.4624,VALID,14,VALID,1.28069,
2005-04-09, 03:29:00,VALID,918.756,VALID,0,VALID,94.4637,VALID,0.0509425,VALID,17.5338,VALID,17,VALID,0.919727,
2005-04-09, 03:30:00,VALID,918.735,VALID,0,VALID,94.4446,VALID,0.0849042,VALID,17.5403,VALID,349,VALID,0.69798,
2005-04-09, 03:31:00,VALID,918.722,VALID,0,VALID,93.9652,VALID,0.0849042,VALID,17.5495,VALID,354,VALID,0.753227,